Location: Downe
(51.3167°N, 0.0500°E)
Time: 16:00:11
(UTC+00:00)

Cosmos 2061 Rocket - Pass Details

Date: 17 November 2019
Orbit: 966 x 1013 km, 82.9° (Epoch: 14 December)

Event Time Altitude Azimuth Distance (km) Brightness Sun altitude
Rises 05:10:38 0° 180° (S) 3,674 7.1 -19.9°
Reaches altitude 10° 05:13:09 10° 178° (S) 2,724 6.4 -19.5°
Maximum altitude 05:19:21 72° 96° (E) 1,023 4.2 -18.6°
Drops below altitude 10° 05:25:32 10° 13° (NNE) 2,721 6.4 -17.6°
Sets 05:28:03 0° 12° (NNE) 3,670 7.1 -17.2°
